Vorticity
nan nan nan nan nan nan nan nan nan nan nan nan nan nan nan nan nan nan nan nan nan nan nan nan nan nan nan nan nan nan nan nan nan nan nan nan nan nan nan nan nan nan nan nan nan nan nan nan nan
nan 7 9 8 5 3 8 11 3 6 0 -4 9 15 12 7 7 15 12 13 8 3 5 9 8 6 5 5 4 4 5 4 5 4 4 4 4 4 4 3 4 5 4 4 5 5 4 4 nan
nan 8 6 9 2 3 4 4 10 -0 2 5 16 13 8 1 11 6 9 16 7 3 5 10 9 6 5 5 5 5 5 5 5 5 4 4 4 4 4 4 5 4 4 4 4 5 5 4 nan
nan 7 8 9 3 4 2 -0 2 1 11 10 8 4 12 14 12 8 13 10 4 4 7 9 7 6 6 5 5 5 5 5 5 5 5 4 4 4 4 5 5 5 5 4 4 4 4 4 nan
nan 8 7 4 5 5 6 6 7 7 7 1 10 18 5 8 16 16 6 8 2 4 7 9 9 5 6 5 5 5 5 5 5 5 5 4 4 4 5 5 5 5 5 5 4 4 4 5 nan
nan 8 7 8 4 2 6 7 8 11 6 7 11 13 3 14 15 6 5 6 6 6 6 9 9 6 6 6 5 5 5 5 5 5 5 5 5 4 5 5 5 5 5 5 5 5 4 5 nan
nan 7 6 6 5 5 7 9 9 10 6 12 9 6 4 7 12 12 10 10 8 5 6 6 9 9 6 5 6 5 5 6 6 5 5 5 5 5 5 5 5 5 5 6 5 5 5 4 nan
nan 5 7 6 6 5 8 6 5 1 7 15 10 9 9 7 8 8 8 8 7 8 8 6 7 7 5 9 9 6 5 5 5 6 5 6 6 6 5 5 6 6 6 5 5 5 5 5 nan
nan 8 8 7 7 1 0 2 2 4 7 8 12 10 15 14 10 5 4 3 7 8 7 6 7 6 7 7 9 9 7 6 6 7 6 3 6 10 9 8 7 6 5 6 6 6 6 5 nan
nan 2 5 6 4 2 3 0 4 5 5 4 8 15 17 8 0 5 5 4 6 3 6 8 7 5 6 6 7 7 7 7 7 8 8 7 7 9 10 11 10 9 6 8 7 8 8 5 nan
nan 5 3 3 4 4 0 4 5 4 4 1 3 6 7 13 6 1 6 11 6 6 7 9 7 11 5 4 4 6 7 7 9 8 7 7 7 7 7 8 10 13 10 8 11 8 9 9 nan
nan 9 8 7 6 3 3 4 3 4 6 5 5 7 10 3 8 13 5 10 9 13 7 5 7 9 7 7 8 7 6 6 7 9 6 5 6 7 7 7 8 7 11 8 8 8 8 7 nan
nan 8 8 10 11 12 10 6 7 0 10 7 4 15 12 12 5 1 11 12 6 7 10 6 4 7 5 7 6 8 8 7 8 8 7 5 6 7 6 7 7 7 8 8 6 7 7 6 nan
nan 9 10 11 11 13 15 10 10 8 10 7 8 8 9 12 11 6 6 5 6 6 8 7 4 1 4 8 6 7 7 7 8 8 10 6 5 7 7 7 6 7 7 7 8 7 7 8 nan
nan 8 13 14 13 5 12 11 9 9 11 11 11 3 10 6 10 12 7 4 1 3 6 8 9 7 7 1 6 6 7 8 7 8 11 9 6 7 7 7 7 8 9 8 6 7 8 8 nan
nan 10 8 6 8 16 11 5 10 11 6 6 9 12 10 8 6 5 5 5 13 9 4 7 6 7 7 6 5 5 8 7 7 8 10 10 7 7 7 7 7 9 9 8 8 7 8 8 nan
nan 9 3 10 10 13 1 8 13 14 11 10 6 7 7 10 7 5 10 10 8 9 12 7 10 10 8 5 7 8 7 6 8 8 9 11 9 6 6 6 8 8 8 8 8 7 8 9 nan
nan 4 4 4 8 9 3 9 7 7 11 14 12 11 9 8 8 11 5 11 10 6 6 15 17 8 8 7 7 7 8 9 9 9 8 10 9 9 6 7 9 7 6 8 8 9 6 8 nan
nan 6 7 10 8 2 8 6 5 8 5 8 9 11 13 9 11 9 8 6 2 13 16 7 7 9 7 7 8 10 8 6 6 10 10 8 9 9 7 7 9 8 8 9 7 7 9 7 nan
nan 14 13 8 5 9 10 6 8 8 9 8 6 7 11 12 12 6 8 8 8 8 6 11 11 8 5 5 7 10 12 10 11 9 11 10 10 8 8 8 9 7 7 9 10 5 6 11 nan
nan 7 6 11 16 12 8 7 9 11 6 7 10 10 10 10 9 13 10 8 9 10 10 11 12 10 7 4 4 7 8 10 11 11 11 10 12 12 9 9 8 9 8 9 9 9 5 7 nan
nan 3 6 12 15 13 4 12 9 9 8 7 5 9 7 7 12 14 13 10 10 10 12 10 11 10 7 7 5 7 6 4 7 9 8 10 12 12 11 10 10 9 8 10 10 9 8 8 nan
nan 8 10 10 8 6 7 14 6 9 7 7 14 10 7 10 9 9 13 13 9 11 11 11 10 7 8 8 6 4 5 6 9 9 8 9 13 14 13 11 8 7 9 10 9 8 8 7 nan
nan 12 12 15 13 4 15 8 6 10 8 14 12 10 10 11 12 13 11 12 11 9 9 11 12 7 6 6 9 9 6 6 5 7 9 11 11 13 13 10 8 7 8 8 9 10 9 8 nan
nan 8 12 11 12 15 12 7 10 8 11 12 10 6 10 8 10 10 14 12 10 9 11 10 11 8 8 7 7 8 8 8 6 7 9 9 8 11 12 10 9 8 9 9 10 10 9 9 nan
nan 8 5 5 3 9 12 14 13 10 10 5 6 6 4 7 9 8 9 13 13 12 11 9 9 10 9 9 8 9 9 9 10 10 10 10 11 10 9 8 9 10 10 10 9 9 10 9 nan
nan 11 9 9 6 9 8 4 8 8 4 4 5 6 7 7 6 8 9 10 14 19 17 11 7 10 11 11 10 10 10 11 11 9 9 10 10 10 10 9 8 8 9 9 9 9 10 9 nan
nan 4 8 11 16 12 8 11 8 0 5 4 6 7 9 8 8 9 9 5 10 22 20 12 13 16 13 13 12 13 10 9 11 11 11 9 8 10 9 8 10 10 9 10 9 8 10 8 nan
nan 7 10 12 9 6 11 11 12 7 6 6 3 7 11 9 9 7 7 8 9 14 18 19 13 14 13 11 12 11 11 12 11 10 10 10 9 9 10 10 10 10 10 9 9 9 10 9 nan
nan nan nan nan nan nan nan nan nan nan nan nan nan nan nan nan nan nan nan nan nan nan nan nan nan nan nan nan nan nan nan nan nan nan nan nan nan nan nan nan nan nan nan nan nan nan nan nan nan
CAPE
0 0 0 0 0 0 0 0 0 0 0 0 0 0 0 17 39 11 2 7 75 154 587 1673 2235 2594 2628 2458 2316 2123 1963 1908 1914 1748 1576 1430 1222 636 330 372 154 6 0 0 0 0 0 0 0
0 0 0 0 0 0 0 0 0 0 0 0 0 0 12 61 109 155 92 63 23 265 463 820 2221 2450 2571 2446 2249 2040 2020 1994 1945 1799 1657 1473 1301 882 215 62 0 0 0 0 0 0 0 0 0
0 0 0 0 0 0 0 0 0 0 0 0 0 0 9 47 286 169 157 20 130 238 292 513 2149 2340 2477 2438 2210 2073 2065 2036 2003 1904 1756 1566 1341 1078 613 253 79 0 0 0 0 0 0 0 0
0 0 0 0 0 0 0 0 0 0 0 0 0 13 34 47 140 334 113 30 56 199 173 891 1911 2213 2334 2407 2248 2144 2132 2136 2066 1998 1841 1647 1344 1000 595 356 212 45 0 0 0 0 15 12 16
0 0 0 0 0 0 0 0 0 0 0 0 0 0 82 85 484 238 92 55 53 160 147 922 1774 2081 2230 2358 2267 2169 2158 2038 2026 2003 1866 1592 1345 911 562 354 131 70 49 5 1 98 168 174 119
0 0 0 0 0 0 0 0 0 0 0 0 0 11 12 197 486 245 55 14 15 59 218 577 1507 1834 1999 2139 2134 2073 2034 2000 1974 1916 1827 1667 1332 976 679 472 272 231 228 160 177 300 295 313 428
0 0 0 0 0 0 0 0 0 0 0 0 0 16 12 3 388 477 68 1 0 96 331 405 723 1273 1815 1845 1860 1867 1808 1803 1797 1717 1654 1574 1312 1004 717 514 421 334 367 346 382 480 426 467 515
0 0 0 0 0 0 0 0 0 0 0 0 0 3 46 0 202 199 206 14 16 342 206 466 542 699 784 1073 1680 1640 1621 1625 1569 1569 1547 1452 1285 1041 781 401 386 362 441 486 550 627 568 630 738
0 0 0 0 0 0 0 0 0 0 0 0 0 2 18 22 108 140 225 208 479 403 356 331 602 614 569 523 840 1240 1396 1408 1330 1354 1361 998 607 509 309 284 245 355 428 513 572 694 715 761 866
0 0 0 0 0 0 0 0 0 0 0 0 0 6 75 14 57 20 198 295 589 518 446 254 283 424 501 594 524 501 477 503 458 404 436 353 142 103 100 175 326 372 469 566 633 769 912 749 490
0 0 0 0 0 0 0 0 0 0 0 0 0 0 37 60 62 68 18 114 532 901 771 362 183 142 257 279 440 466 378 339 253 158 120 128 26 32 115 12 152 75 266 139 365 486 642 492 440
0 0 0 0 0 0 0 0 0 0 0 0 0 0 1 94 8 39 3 44 100 793 1281 994 612 227 34 10 193 254 254 233 162 128 14 20 0 0 0 0 0 0 4 50 69 157 423 416 341
0 0 0 0 0 0 0 0 0 0 0 0 0 0 0 40 107 10 22 48 153 1245 1814 1564 1132 580 257 0 82 138 74 51 44 16 21 5 0 0 0 0 0 0 0 25 20 39 213 326 291
0 0 0 0 0 0 0 0 0 0 0 0 0 0 0 0 23 11 19 68 62 42 402 806 468 233 324 39 36 90 143 71 0 0 0 0 0 0 0 0 0 0 0 3 11 0 44 121 152
0 0 0 0 0 0 0 0 0 0 0 0 0 0 0 0 0 3 5 1 3 16 22 350 16 7 13 209 123 231 246 160 56 3 0 0 0 0 0 0 0 0 0 0 2 0 0 37 130
0 0 0 0 0 0 0 0 0 0 0 0 0 0 0 0 0 0 0 0 0 0 0 27 351 424 566 428 536 533 408 318 240 106 19 1 0 0 0 0 0 0 0 0 0 0 0 42 146
0 0 0 0 0 0 0 0 0 0 0 0 0 0 0 0 0 0 0 0 0 0 0 35 491 827 938 989 1100 1113 1001 582 541 385 200 88 27 0 1 0 0 0 0 0 0 0 0 75 195
0 0 0 0 0 0 0 0 0 0 0 0 0 0 0 0 0 0 0 0 0 0 0 3 638 1173 1244 1403 1286 1355 1067 1208 844 709 641 315 203 127 16 23 8 0 0 0 0 11 0 2 147
0 0 0 0 0 0 0 0 0 0 0 0 0 0 0 0 0 0 0 0 0 0 0 0 0 1074 1424 1675 1612 1612 1552 1206 874 605 698 576 676 351 101 62 30 20 0 0 12 2 77 42 120
0 0 0 0 0 0 0 0 0 0 0 0 0 0 0 0 0 0 0 0 0 0 0 10 2 127 1280 1401 1531 1320 1314 471 1090 923 663 423 626 915 495 137 105 58 72 6 21 45 16 192 110
0 0 0 0 0 0 0 0 0 0 0 0 0 0 0 0 0 0 0 0 0 0 0 27 27 87 1002 927 190 23 14 21 95 62 10 142 248 1023 788 372 187 257 242 108 27 128 160 138 119
0 0 0 0 0 0 0 0 0 0 0 0 0 0 0 0 0 0 0 0 0 0 0 54 67 36 39 0 38 132 62 15 4 1 8 75 220 946 955 599 408 437 369 254 146 91 143 209 320
0 0 0 0 0 0 0 0 0 0 0 0 0 0 0 0 0 0 0 0 0 0 0 1 21 10 0 0 0 0 0 0 0 0 0 1 628 954 1106 796 552 452 392 292 293 315 187 146 223
0 0 0 0 0 0 0 0 0 0 0 0 0 0 0 0 0 0 0 0 0 0 0 0 0 0 0 0 0 0 0 0 0 2 87 272 605 693 1045 869 687 574 678 506 413 418 381 167 253
0 0 0 0 0 0 0 0 0 0 0 0 0 0 0 0 0 0 0 0 0 0 0 0 0 0 0 0 0 0 0 0 0 12 368 601 546 528 737 830 796 764 906 788 548 525 349 246 264
0 0 3 2 0 0 0 0 0 0 0 0 0 0 0 0 0 0 0 0 0 0 0 0 0 0 0 0 0 0 0 0 0 150 844 828 822 592 541 677 683 799 692 718 550 489 382 271 181
0 0 3 12 4 38 0 0 0 0 0 0 0 0 0 0 0 0 0 0 0 0 0 0 0 0 0 0 0 1 1 0 169 657 743 541 431 465 330 460 565 684 855 808 586 467 500 302 49
0 0 0 0 2 13 0 0 0 0 0 0 0 0 0 0 0 0 0 0 0 0 0 0 0 0 0 5 48 311 186 103 555 663 654 612 553 642 382 442 613 823 836 689 553 396 374 266 20
0 0 0 0 0 0 0 0 1 0 0 0 0 0 0 0 0 0 0 0 0 0 0 0 0 0 97 301 482 720 856 829 698 717 621 579 480 475 490 521 666 721 650 413 406 327 214 179 11
0 0 0 0 0 10 0 0 0 0 0 0 0 0 0 0 0 0 0 0 0 0 325 183 156 276 419 667 1053 1180 1332 876 687 601 632 568 451 473 677 774 798 754 545 278 249 151 95 55 14